Flag for Switzerland Weather past 2 weeks in Lucerne, Lucerne, Switzerland

Now
62 °F

Mild.


Feels Like: 62 °F
Forecast: 48 / 69 °F
Wind: 2 mph from Northeast

Location: Giswil

Current Time: Sep 3, 2015 at 1:35:58 PM

Latest Report: Sep 3, 2015 at 12:00 PM


Visibility: N/A

Pressure: 29.96 "Hg

Humidity: 68%

Dew point: 52 °F

Location of LucerneLocation

Historic Weather in Lucerne — Graph

°F

Lucerne temperature yesterday

Maximum temperature yesterday: 67 °F (at 2:00 PM)
Minimum temperature yesterday: 57 °F (at 7:00 AM)
Average temperature yesterday: 61 °F

Past Weeks' High & Low Weather Summary

 TemperatureHumidityPressure
High89 °F (Aug 30, 3:00 PM)100% (Aug 21, 3:00 AM)30.29 "Hg (Aug 21, 3:00 AM)
Low47 °F (Aug 20, 7:00 AM)31% (Aug 30, 4:00 PM)29.70 "Hg (Aug 24, 2:00 PM)
Average64 °F80%30.03 "Hg
* Reported Aug 19 12:00 Noon — Sep 3 12:00 Noon, Lucerne, Weather by CustomWeather, © 2015

Note: Actual official high and low records may vary slightly from our data, if they occured in-between our weather recording intervals... More about our weather records

Advertising

Lucerne weather history for previous 24 hours

 ConditionsComfort  
Time TempWeatherWind HumidityBarometerVisibility
12:00 PM
Thu, Sep 3
62 °FMild.2 mph68%29.96 "HgN/A
11:00 AM62 °FCool.5 mph77%29.96 "HgN/A
10:00 AM62 °FCool.1 mph81%29.97 "HgN/A
9:00 AM60 °FCool.No wind90%29.97 "HgN/A
8:00 AM59 °FCool.1 mph96%29.97 "HgN/A
7:00 AM57 °FCool.2 mph99%29.97 "HgN/A
5:00 AM58 °FCool.1 mph98%29.97 "HgN/A
4:00 AM58 °FCool.2 mph97%29.97 "HgN/A
3:00 AM58 °FCool.1 mph98%29.97 "HgN/A
2:00 AM58 °FCool.1 mph99%29.98 "HgN/A
1:00 AM58 °FCool.No wind98%29.98 "HgN/A
12:00 AM59 °FCool.1 mph98%29.98 "HgN/A
10:00 PM
Wed, Sep 2
59 °FCool.2 mph97%29.99 "HgN/A
9:00 PM60 °FCool.1 mph98%29.98 "HgN/A
8:00 PM60 °FCool.2 mph93%29.99 "HgN/A
7:00 PM61 °FCool.3 mph92%29.99 "HgN/A
6:00 PM62 °FCool.3 mph86%29.99 "HgN/A
5:00 PM64 °FMild.2 mph80%29.98 "HgN/A
4:00 PM65 °FMild.1 mph77%29.96 "HgN/A
3:00 PM67 °FMild.3 mph67%29.96 "HgN/A
2:00 PM67 °FMild.5 mph67%29.96 "HgN/A
1:00 PM66 °FMild.3 mph71%29.97 "HgN/A
Weather by CustomWeather, © 2015

See weather overviewHow to use our weather pages